Weather History for PAJN - January, 2013

Change the Weather History Date:

Friday, January 25, 2013

  Actual Average Record
Temperature  
Mean Temperature 36 °F 28 °F  
Max Temperature 40 °F 33 °F 44 °F (1983)
Min Temperature 31 °F 24 °F -14 °F (1971)
Degree Days  
Heating Degree Days 29 37  
Month to date heating degree days 781 925  
Since 1 July heating degree days 4999 4646  
Moisture  
Dew Point 34 °F    
Average Humidity 93    
Maximum Humidity 100    
Minimum Humidity 85    
Precipitation  
Precipitation 0.13 in 0.18 in 1.88 in (1986)
Month to date precipitation 6.26 4.34  
Year to date precipitation 6.26 4.34  
Snow  
Snow 0.00 in 1.00 in 8.00 in (2002)
Month to date snowfall 10.5 22.3  
Since 1 July snowfall 54.3 51.8  
Snow Depth 0.00 in    
Sea Level Pressure  
Sea Level Pressure 29.43 in    
Wind  
Wind Speed 9 mph (East)    
Max Wind Speed 18 mph    
Max Gust Speed 22 mph    
Visibility 7 miles    
Events Fog , Rain , Snow    
T = Trace of Precipitation, MM = Missing Value Source: NWS Daily Summary

Daily Weather History Graph

Daily Weather History Graph

Search for Another Location

Airport or City:

Trip Planner

Search our weather history database for the weather conditions in past years. The results will help you decide how hot, cold, wet, or windy it might be!

Date:

Astronomy

Jan. 25, 2013 Rise Set
Actual Time 8:16 AM AKST 4:05 PM AKST
Civil Twilight 7:30 AM AKST 4:51 PM AKST
Nautical Twilight 6:41 AM AKST 5:40 PM AKST
Astronomical Twilight 5:54 AM AKST 6:27 PM AKST
Moon 3:11 PM AKST (1/25) 7:02 AM AKST (1/25)
Length of Visible Light 9h 20m
Length of Day
7h 48m
Waxing Gibbous, 98% of the Moon is Illuminated
Jan 25
Waxing Gibbous
Jan 26
Full
Feb 3
Last Quarter
Feb 9
New
Feb 17
First Quarter

Hourly Weather History & Observations

Time (AKST) Temp. Windchill Dew Point Humidity Pressure Visibility Wind Dir Wind Speed Gust Speed Precip Events Conditions
12:53 AM 32.0 °F - 32.0 °F 100% 29.35 in 0.8 mi Calm Calm - N/A   Overcast
1:53 AM 30.9 °F - 30.9 °F 100% 29.36 in 0.2 mi Calm Calm - N/A Fog Light Freezing Fog
2:19 AM 30.9 °F - 30.0 °F 96% 29.36 in 0.2 mi Calm Calm - N/A Fog Light Freezing Fog
2:33 AM 30.9 °F - 30.9 °F 100% 29.36 in 0.5 mi Calm Calm - N/A Fog Light Freezing Fog
2:53 AM 30.9 °F - 30.9 °F 100% 29.36 in 0.5 mi Calm Calm - N/A Fog Light Freezing Fog
3:03 AM 30.9 °F - 30.9 °F 100% 29.36 in 0.5 mi Calm Calm - N/A Fog Light Freezing Fog
3:53 AM 30.9 °F - 30.9 °F 100% 29.36 in 1.0 mi Calm Calm - N/A   Overcast
4:19 AM 30.9 °F - 30.9 °F 100% 29.36 in 2.0 mi Calm Calm - N/A   Overcast
4:53 AM 30.9 °F - 30.9 °F 100% 29.37 in 5.0 mi Calm Calm - N/A   Overcast
5:53 AM 32.0 °F 25.6 °F 32.0 °F 100% 29.38 in 5.0 mi ENE 6.9 mph - 0.01 in Snow Light Snow
6:53 AM 35.1 °F 26.4 °F 34.0 °F 96% 29.39 in 10.0 mi East 12.7 mph - 0.00 in Rain Light Rain
7:53 AM 37.0 °F 29.8 °F 34.0 °F 89% 29.40 in 10.0 mi East 10.4 mph - 0.02 in Rain Light Rain
8:53 AM 37.0 °F 29.8 °F 35.1 °F 93% 29.42 in 10.0 mi East 10.4 mph - 0.02 in   Overcast
9:53 AM 37.9 °F 30.9 °F 35.1 °F 89% 29.42 in 10.0 mi East 10.4 mph - N/A   Overcast
10:53 AM 37.9 °F 29.6 °F 35.1 °F 89% 29.43 in 10.0 mi ESE 13.8 mph - N/A   Overcast
11:53 AM 39.0 °F 30.6 °F 35.1 °F 86% 29.44 in 10.0 mi ESE 15.0 mph - 0.00 in Rain Light Rain
12:53 PM 39.0 °F 31.4 °F 35.1 °F 86% 29.44 in 10.0 mi East 12.7 mph - 0.00 in   Overcast
1:53 PM 39.0 °F 31.8 °F 36.0 °F 89% 29.44 in 10.0 mi East 11.5 mph - 0.00 in   Overcast
2:53 PM 39.0 °F 31.8 °F 36.0 °F 89% 29.45 in 10.0 mi East 11.5 mph - N/A   Overcast
3:53 PM 37.9 °F 30.9 °F 36.0 °F 93% 29.46 in 10.0 mi East 10.4 mph - 0.00 in Rain Light Rain
4:53 PM 39.0 °F 32.3 °F 36.0 °F 89% 29.47 in 10.0 mi East 10.4 mph - 0.02 in Rain Light Rain
5:53 PM 37.9 °F 30.9 °F 36.0 °F 93% 29.47 in 10.0 mi East 10.4 mph - 0.00 in Rain Light Rain
6:53 PM 39.0 °F 30.6 °F 36.0 °F 89% 29.48 in 10.0 mi East 15.0 mph - 0.01 in Rain Light Rain
7:53 PM 39.0 °F 31.0 °F 36.0 °F 89% 29.49 in 10.0 mi ESE 13.8 mph - 0.01 in Rain Light Rain
8:53 PM 39.0 °F 31.8 °F 36.0 °F 89% 29.51 in 10.0 mi ESE 11.5 mph - 0.00 in Rain Light Rain
9:53 PM 37.9 °F 32.1 °F 36.0 °F 93% 29.52 in 10.0 mi East 8.1 mph - 0.01 in Rain Light Rain
10:53 PM 39.0 °F 31.8 °F 36.0 °F 89% 29.52 in 10.0 mi ESE 11.5 mph - 0.02 in Rain Light Rain
11:53 PM 39.0 °F 33.4 °F 36.0 °F 89% 29.53 in 10.0 mi ESE 8.1 mph - 0.01 in Rain Light Rain